OBJECT M (47320 NORAD) Tracking and Keplerian Element Data

This shows tracking and keplerian element data for the satellite.

Feedback or suggestion? Click here.




ElementValue
Catalog47320
NameOBJECT M
Epoch Orbit1013
Epoch Day84.44271152
Epoch Year2021
RAAN245.6261
Inclination60.6853
Eccentricity0.0023447
Argument of Perigee357.6249
Mean Anonmoly2.4722
Mean Motion15.2136304
Decay Rate2.83E-05
L11 47320U 21002M 21084.44271152 .00002830 00000-0 13646-3 0 9998
L22 47320 60.6853 245.6261 0023447 357.6249 2.4722 15.21363040 10135



Live tracking and technical data element details for OBJECT M (NORAD 47320). OBJECT M can be tracked NOW for your location showing map with azimuth and elevation plus other details from your city location.







IsCatalogInMostPopularTable: catalog: 47320, numindb: 135
Update: records affected: 1



GetName: 47320 OBJECT M

Hit Count: updated at: Fri, 02 Dec 2022 13:27:44 GMT